When you browse on this site, cookies collect data to enhance your experience and personalize the content and advertising you see.
Visit our Privacy Policy to learn more. By continuing to use the site, you agree to this use of cookies and data.
  • In Austria
  • List of Countries
  • For 7 days
  • Water Temperature
  • Weather Map
  • News
  • Weather Widgets
  • user-avatar
    Login

    Hourly Weather Hlukhy

    Today, 23 September, Monday

    Time Temperature Precipitation Wind Pressure Humidity
    00:00 +12°C° 0 mm 2 mps 747 mmHg 85%
    01:00 +10°C° 0 mm 2 mps 748 mmHg 88%
    02:00 +9°C° 0 mm 2 mps 748 mmHg 91%
    03:00 +9°C° 0 mm 3 mps 748 mmHg 91%
    04:00 +9°C° 0 mm 3 mps 748 mmHg 90%
    05:00 +7°C° 0 mm 4 mps 748 mmHg 90%
    06:00 +7°C° 0 mm 4 mps 749 mmHg 87%
    07:00 +8°C° 0 mm 4 mps 749 mmHg 83%
    08:00 +8°C° 0 mm 5 mps 750 mmHg 78%
    09:00 +9°C° 0 mm 5 mps 750 mmHg 74%
    10:00 +9°C° 0 mm 5 mps 750 mmHg 69%
    11:00 +10°C° 0 mm 5 mps 750 mmHg 65%
    12:00 +12°C° 0 mm 4 mps 750 mmHg 62%
    13:00 +13°C° 0 mm 4 mps 750 mmHg 60%
    14:00 +13°C° 0 mm 4 mps 750 mmHg 59%
    15:00 +13°C° 0 mm 4 mps 750 mmHg 59%
    16:00 +13°C° 0 mm 4 mps 750 mmHg 60%
    17:00 +13°C° 0 mm 3 mps 750 mmHg 60%
    18:00 +11°C° 0 mm 3 mps 750 mmHg 64%
    19:00 +9°C° 0 mm 3 mps 750 mmHg 68%
    20:00 +8°C° 0 mm 3 mps 750 mmHg 71%
    21:00 +7°C° 0 mm 3 mps 750 mmHg 70%
    22:00 +5°C° 0 mm 3 mps 751 mmHg 69%
    23:00 +5°C° 0 mm 3 mps 751 mmHg 68%

    Tomorrow, 24 September, Tuesday

    Time Temperature Precipitation Wind Pressure Humidity
    00:00 +4°C° 0 mm 3 mps 751 mmHg 68%
    01:00 +4°C° 0 mm 3 mps 751 mmHg 68%
    02:00 +3°C° 0 mm 3 mps 751 mmHg 68%
    03:00 +3°C° 0 mm 3 mps 751 mmHg 69%
    04:00 +3°C° 0 mm 3 mps 750 mmHg 69%
    05:00 +2°C° 0 mm 3 mps 750 mmHg 69%
    06:00 +3°C° 0 mm 3 mps 750 mmHg 65%
    07:00 +4°C° 0 mm 3 mps 750 mmHg 61%
    08:00 +5°C° 0 mm 4 mps 750 mmHg 57%
    09:00 +7°C° 0 mm 4 mps 750 mmHg 54%
    10:00 +10°C° 0 mm 4 mps 750 mmHg 50%
    11:00 +12°C° 0 mm 4 mps 750 mmHg 47%
    12:00 +13°C° 0 mm 4 mps 750 mmHg 47%
    13:00 +14°C° 0 mm 3 mps 749 mmHg 47%
    14:00 +16°C° 0 mm 3 mps 749 mmHg 47%
    15:00 +16°C° 0 mm 3 mps 748 mmHg 50%
    16:00 +16°C° 0 mm 2 mps 748 mmHg 53%
    17:00 +15°C° 0 mm 2 mps 748 mmHg 56%
    18:00 +14°C° 0 mm 2 mps 748 mmHg 61%
    19:00 +12°C° 0 mm 2 mps 748 mmHg 67%
    20:00 +9°C° 0 mm 2 mps 748 mmHg 72%
    21:00 +8°C° 0 mm 3 mps 748 mmHg 74%
    22:00 +8°C° 0 mm 3 mps 747 mmHg 76%
    23:00 +7°C° 0 mm 3 mps 747 mmHg 78%

    Day after tomorrow, 25 September, Wednesday

    Time Temperature Precipitation Wind Pressure Humidity
    00:00 +7°C° 0 mm 3 mps 747 mmHg 78%
    01:00 +5°C° 0 mm 3 mps 747 mmHg 79%
    02:00 +5°C° 0 mm 3 mps 747 mmHg 80%
    03:00 +5°C° 0 mm 3 mps 747 mmHg 79%
    04:00 +5°C° 0 mm 3 mps 746 mmHg 78%
    05:00 +4°C° 0 mm 3 mps 746 mmHg 77%
    06:00 +7°C° 0 mm 3 mps 746 mmHg 75%
    07:00 +8°C° 0 mm 3 mps 746 mmHg 73%
    08:00 +9°C° 0 mm 3 mps 745 mmHg 71%
    09:00 +11°C° 0 mm 3 mps 745 mmHg 67%
    10:00 +13°C° 0 mm 3 mps 745 mmHg 64%
    11:00 +16°C° 0 mm 3 mps 745 mmHg 61%
    12:00 +17°C° 0 mm 3 mps 745 mmHg 59%
    13:00 +18°C° 0 mm 3 mps 745 mmHg 58%
    14:00 +19°C° 0 mm 3 mps 744 mmHg 57%
    15:00 +18°C° 0 mm 3 mps 744 mmHg 60%
    16:00 +18°C° 0 mm 2 mps 744 mmHg 64%
    17:00 +18°C° 0 mm 2 mps 743 mmHg 67%
    18:00 +17°C° 0 mm 2 mps 743 mmHg 71%
    19:00 +16°C° 0 mm 2 mps 743 mmHg 74%
    20:00 +14°C° 0 mm 2 mps 744 mmHg 78%
    21:00 +14°C° 0.1 mm 2 mps 743 mmHg 81%
    22:00 +14°C° 0.1 mm 1 mps 743 mmHg 84%
    23:00 +14°C° 0.1 mm 1 mps 743 mmHg 88%

    26 September, Thursday

    Time Temperature Precipitation Wind Pressure Humidity
    00:00 +14°C° 0.1 mm 1 mps 743 mmHg 90%
    01:00 +14°C° 0.1 mm 1 mps 743 mmHg 92%
    02:00 +13°C° 0.1 mm 1 mps 743 mmHg 95%
    03:00 +13°C° 0.2 mm 1 mps 743 mmHg 95%
    04:00 +13°C° 0.2 mm 1 mps 743 mmHg 96%
    05:00 +13°C° 0.2 mm 1 mps 743 mmHg 97%
    06:00 +13°C° 0.1 mm 1 mps 744 mmHg 96%
    07:00 +14°C° 0.1 mm 1 mps 744 mmHg 95%
    08:00 +14°C° 0.1 mm 1 mps 744 mmHg 95%
    09:00 +14°C° 0.1 mm 1 mps 744 mmHg 91%
    10:00 +15°C° 0.1 mm 1 mps 745 mmHg 88%
    11:00 +16°C° 0.1 mm 1 mps 745 mmHg 85%
    12:00 +16°C° 0.3 mm 1 mps 745 mmHg 83%
    13:00 +17°C° 0.3 mm 2 mps 745 mmHg 81%
    14:00 +17°C° 0.3 mm 2 mps 745 mmHg 79%
    15:00 +17°C° 0.3 mm 3 mps 745 mmHg 80%
    16:00 +17°C° 0.3 mm 3 mps 745 mmHg 81%
    17:00 +16°C° 0.3 mm 3 mps 745 mmHg 82%
    18:00 +14°C° 0.1 mm 3 mps 745 mmHg 87%
    19:00 +13°C° 0.1 mm 3 mps 745 mmHg 91%
    20:00 +13°C° 0.1 mm 2 mps 746 mmHg 95%
    21:00 +13°C° 0 mm 2 mps 746 mmHg 95%
    22:00 +12°C° 0 mm 2 mps 746 mmHg 95%
    23:00 +11°C° 0 mm 3 mps 747 mmHg 95%

    27 September, Friday

    Time Temperature Precipitation Wind Pressure Humidity
    00:00 +12°C° 0 mm 2 mps 747 mmHg 95%
    01:00 +10°C° 0 mm 2 mps 747 mmHg 95%
    02:00 +10°C° 0 mm 2 mps 747 mmHg 95%
    03:00 +10°C° 0 mm 2 mps 747 mmHg 95%
    04:00 +10°C° 0 mm 2 mps 748 mmHg 94%
    05:00 +9°C° 0 mm 2 mps 748 mmHg 94%
    06:00 +10°C° 0 mm 3 mps 748 mmHg 92%
    07:00 +10°C° 0 mm 3 mps 748 mmHg 91%
    08:00 +10°C° 0 mm 3 mps 748 mmHg 89%
    09:00 +12°C° 0 mm 3 mps 748 mmHg 82%
    10:00 +13°C° 0 mm 3 mps 749 mmHg 75%
    11:00 +16°C° 0 mm 3 mps 749 mmHg 68%
    12:00 +16°C° 0 mm 2 mps 749 mmHg 65%
    13:00 +17°C° 0 mm 2 mps 749 mmHg 63%
    14:00 +18°C° 0 mm 2 mps 749 mmHg 60%
    15:00 +18°C° 0 mm 2 mps 749 mmHg 62%
    16:00 +18°C° 0 mm 2 mps 748 mmHg 64%
    17:00 +19°C° 0 mm 1 mps 748 mmHg 66%
    18:00 +16°C° 0 mm 2 mps 748 mmHg 71%
    19:00 +15°C° 0 mm 2 mps 748 mmHg 76%
    20:00 +14°C° 0 mm 2 mps 749 mmHg 81%
    21:00 +13°C° 0 mm 2 mps 749 mmHg 83%
    22:00 +13°C° 0 mm 2 mps 749 mmHg 85%
    23:00 +13°C° 0 mm 2 mps 749 mmHg 86%

    28 September, Saturday

    Time Temperature Precipitation Wind Pressure Humidity
    00:00 +12°C° 0 mm 2 mps 749 mmHg 88%
    01:00 +12°C° 0 mm 2 mps 749 mmHg 90%
    02:00 +12°C° 0 mm 2 mps 749 mmHg 92%
    03:00 +11°C° 0 mm 3 mps 749 mmHg 92%
    04:00 +11°C° 0 mm 3 mps 749 mmHg 92%
    05:00 +11°C° 0 mm 3 mps 749 mmHg 93%
    06:00 +12°C° 0 mm 3 mps 748 mmHg 89%
    07:00 +13°C° 0 mm 4 mps 748 mmHg 86%
    08:00 +13°C° 0 mm 4 mps 748 mmHg 82%
    09:00 +15°C° 0 mm 4 mps 748 mmHg 78%
    10:00 +17°C° 0 mm 4 mps 749 mmHg 74%
    11:00 +19°C° 0 mm 4 mps 749 mmHg 70%
    12:00 +19°C° 0.6 mm 4 mps 749 mmHg 67%
    13:00 +20°C° 0.6 mm 4 mps 748 mmHg 65%
    14:00 +21°C° 0.6 mm 5 mps 748 mmHg 63%
    15:00 +20°C° 0.3 mm 4 mps 748 mmHg 66%
    16:00 +19°C° 0.3 mm 3 mps 748 mmHg 69%
    17:00 +19°C° 0.3 mm 3 mps 748 mmHg 73%
    18:00 +18°C° 0.1 mm 3 mps 748 mmHg 77%
    19:00 +16°C° 0.1 mm 3 mps 748 mmHg 81%
    20:00 +14°C° 0.1 mm 3 mps 748 mmHg 86%
    21:00 +15°C° 0.2 mm 2 mps 748 mmHg 86%
    22:00 +15°C° 0.2 mm 2 mps 748 mmHg 87%
    23:00 +15°C° 0.2 mm 2 mps 748 mmHg 87%
    Show more